Location: D�rnast
(49.6426°N, 11.9755°E)
Time: 08:11:42
(UTC+00:00)

ISS - Pass Details

Date: 09 December 2021
Orbit: 413 x 422 km, 51.6° (Epoch: 22 January)

Event Time Altitude Azimuth Distance (km) Brightness Sun altitude
Rises 16:18:37 0° 284° (WNW) 2,376 1.0 -10.2°
Reaches altitude 10° 16:21:09 10° 265° (W) 1,506 0.4 -10.6°
Maximum altitude 16:23:33 18° 220° (SW) 1,102 -0.7 -10.9°
Drops below altitude 10° 16:25:56 10° 175° (S) 1,496 -0.7 -11.3°
Sets 16:28:26 0° 156° (SSE) 2,354 0.0 -11.7°
